Home   Weather   34°05'N, 117°45'W   Past weeks
Flag for USA

Past Weather in 34°05'N, 117°45'W, USA — Yesterday and Last 2 Weeks

Now
61 °F

Clear.


Feels Like: 61 °F
Forecast: 77 / 58 °F
Wind: No wind

Location: Chino Airport

Current Time: Oct 17, 2019 at 3:45:53 am

Latest Report: Oct 17, 2019 at 2:53 am


Visibility: 7 mi

Pressure: 29.80 "Hg

Humidity: 72%

Dew Point: 52 °F

Location of 34°05'N, 117°45'WLocation

Past Weather in 34°05'N, 117°45'W — Graph

°F

34°05'N, 117°45'W Temperature Yesterday

Maximum temperature yesterday: 94 °F (at 1:53 pm)
Minimum temperature yesterday: 54 °F (at 5:53 am)
Average temperature yesterday: 72 °F

High & Low Weather Summary for the Past Weeks

 TemperatureHumidityPressure
High96 °F (Oct 6, 2:53 pm)97% (Oct 9, 6:53 am)30.06 "Hg (Oct 9, 6:53 am)
Low45 °F (Oct 12, 5:53 am)4% (Oct 10, 3:53 pm)29.77 "Hg (Oct 9, 4:53 pm)
Average68 °F51%29.92 "Hg
* Reported Oct 2 1:53 am — Oct 17 1:53 am, 34°05'N, 117°45'W. Weather by CustomWeather, © 2019

Note: Actual official high and low records may vary slightly from our data, if they occured in-between our weather recording intervals... More about our weather records

Advertising

34°05'N, 117°45'W Weather History for the Previous 24 Hours

Scroll right to see more
 ConditionsComfort  
Time TempWeatherWind HumidityBarometerVisibility
1:53 am
Thu, Oct 17
61 °FClear.3 mph72%29.80 "Hg6 mi
12:53 am63 °FClear.No wind68%29.81 "Hg7 mi
11:53 pm
Wed, Oct 16
62 °FClear.3 mph67%29.82 "Hg6 mi
10:53 pm65 °FClear.No wind63%29.83 "Hg9 mi
9:53 pm67 °FClear.3 mph59%29.83 "Hg8 mi
8:53 pm70 °FPassing clouds.5 mph53%29.82 "Hg10 mi
7:53 pm73 °FPassing clouds.7 mph48%29.82 "Hg10 mi
6:53 pm73 °FPassing clouds.8 mph48%29.80 "Hg10 mi
5:53 pm79 °FPartly sunny.9 mph39%29.79 "Hg10 mi
4:53 pm84 °FPartly sunny.13 mph33%29.79 "Hg10 mi
3:53 pm89 °FPartly sunny.14 mph18%29.79 "Hg10 mi
2:53 pm93 °FPartly sunny.12 mph16%29.80 "Hg10 mi
1:53 pm94 °FPartly sunny.3 mph14%29.83 "Hg10 mi
12:53 pm92 °FPartly sunny.No wind14%29.87 "Hg10 mi
11:53 am90 °FScattered clouds.5 mph20%29.90 "Hg10 mi
10:53 am83 °FScattered clouds.No wind24%29.94 "Hg10 mi
9:53 am76 °FScattered clouds.No wind32%29.96 "Hg10 mi
8:53 am70 °FPassing clouds.No wind44%29.97 "Hg10 mi
7:53 am58 °FPassing clouds.3 mph70%29.97 "Hg10 mi
6:53 am56 °FPassing clouds.No wind70%29.96 "Hg10 mi
5:53 am54 °FClear.3 mph74%29.95 "Hg8 mi
4:53 am55 °FClear.3 mph72%29.94 "Hg9 mi
3:53 am61 °FClear.5 mph58%29.94 "Hg10 mi
Weather by CustomWeather, © 2019

See weather overview